Regional Weather Roundup
Issued by NWS

Home | Current Version | Previous Version | Graphics & Text | Print | Product List | Glossary Off
Versions: 1 2 3 4 5 6 7 8 9 10 11 12 13 14 15 16 17 18 19 20 21 22 23 24 25 26 27 28 29 30 31 32 33 34 35 36 37 38 39 40 41 42 43 44 45 46 47 48 49 50

000
ASUS43 KDMX 160807
RWRIA

WEATHER ROUNDUP FOR IOWA
NATIONAL WEATHER SERVICE DES MOINES IA
300 AM CDT TUE SEP 16 2014

NOTE: "FAIR" INDICATES FEW OR NO CLOUDS BELOW 12,000 FEET WITH NO
SIGNIFICANT WEATHER AND/OR OBSTRUCTIONS TO VISIBILITY.

* - THESE STATIONS ARE NOT NWS STATIONS...THUS NOT UNDER NWS
QUALITY CONTROL.  THEY ALSO DO NOT REPORT WEATHER SUCH
AS PRECIPITATION OR FOG.

IAZ001>003-012>014-020>022-031>034-043>046-160900-
   NORTHWEST IOWA

CITY           SKY/WX    TMP DP  RH WIND       PRES   REMARKS
CARROLL *      CLEAR     37  37 100 CALM      30.26F FOG
CHEROKEE *     CLEAR     37  37 100 CALM      30.26S FOG
DENISON *      CLEAR     39  39 100 CALM      30.25S
LE MARS *        N/A     39  39 100 CALM      30.26S
ORANGE CITY *  CLEAR     45  41  87 S3        30.25S
SHELDON *      CLEAR     37  37 100 E3        30.24S
SIOUX CITY     CLEAR     41  39  93 CALM      30.26F
SPENCER        CLEAR     38  36  92 CALM      30.25F
STORM LAKE *   CLEAR     45  45 100 SW5       30.25F
$$

IAZ055>058-069>071-079>083-090>094-160900-
   SOUTHWEST IOWA

CITY           SKY/WX    TMP DP  RH WIND       PRES   REMARKS
ATLANTIC *     PTCLDY    41  41 100 CALM      30.27S
AUDUBON *      CLEAR     41  39  93 CALM      30.28S
CLARINDA *     FOG       41  41 100 CALM      30.30S VSB 1/4
COUNCIL BLFS *   N/A     46  46 100 CALM      30.27S
CRESTON *      CLEAR     43  43 100 W3        30.27S
HARLAN  *      CLEAR     39  39 100 CALM      30.31S
LAMONI         CLEAR     46  44  93 N3        30.26R
SHENANDOAH *   MOCLDY    41  41 100 CALM      30.29S FOG
$$

IAZ047>049-059>061-072>074-084-160900-
   CENTRAL IOWA

CITY           SKY/WX    TMP DP  RH WIND       PRES   REMARKS
AMES           CLEAR     40  40 100 CALM      30.26S
ANKENY *       CLEAR     43  43 100 CALM      30.26S
CHARITON *     CLEAR     45  45 100 NW3       30.25S
DES MOINES     CLEAR     46  43  89 CALM      30.26R
GRINNELL*      CLEAR     43  41  93 NW3       30.25S
KNOXVILLE *    CLEAR     45  43  93 NW3       30.23F
MARSHALLTOWN   CLEAR     39  38  96 NW5       30.24S FOG
PELLA *        CLEAR     45  43  93 CALM      30.26S
PERRY *          N/A     43  41  93 W6        30.26S
$$

IAZ004>006-015-016-023>025-035-036-160900-
   NORTH CENTRAL IOWA

CITY           SKY/WX    TMP DP  RH WIND       PRES   REMARKS
ALGONA *       CLEAR     41  39  93 SW5       30.25F
CLARION *        N/A     37  37 100 CALM      30.25S
ESTHERVILLE    CLEAR     39  37  92 SW7       30.24F WCI  34
FORT DODGE *   MOCLDY    37  36  93 CALM      30.26S VSB 3/4
MASON CITY     CLEAR     37  36  96 SW3       30.26S FOG
FOREST CITY *  FOG       37  37 100 CALM      30.24F VSB 3/4
IOWA FALLS *     N/A     39  37  93 CALM      30.26S
$$

IAZ007>011-017>019-026>030-037>042-050>054-066-160900-
   NORTHEAST IOWA

CITY           SKY/WX    TMP DP  RH WIND       PRES   REMARKS
CEDAR RAPIDS   CLEAR     43  42  97 NW7       30.23
CHARLES CITY * CLEAR     39  39 100 W3        30.25S
CLINTON *      CLEAR     39  37  93 NW3       30.25S
DECORAH *      PTCLDY    39  39 100 CALM      30.23S
DUBUQUE        CLEAR     45  42  89 N6        30.23S
MONTICELLO *   CLEAR     37  37 100 CALM      30.24S FOG
OELWEIN *      CLEAR     39  39 100 CALM      30.25S
WATERLOO       FOG       38  38 100 CALM      30.24S VSB 1/2
$$

IAZ064-065-067-068-078-160900-
   EAST CENTRAL IOWA

CITY           SKY/WX    TMP DP  RH WIND       PRES   REMARKS
DAVENPORT      CLEAR     40  38  93 W6        30.24R
IOWA CITY      CLEAR     45  44  97 CALM      30.25
MT. PLEASANT * CLEAR     46  46 100 CALM      30.24S
MUSCATINE *    CLEAR     46  45  93 CALM      30.24S
QUAD CITIES    CLEAR     44  42  93 CALM      30.23S FOG
$$

IAZ062-063-075>077-085>089-095>099-160900-
   SOUTHEAST IOWA

CITY           SKY/WX    TMP DP  RH WIND       PRES   REMARKS
BURLINGTON     CLEAR     47  47 100 NW3       30.23S
FAIRFIELD *    CLEAR     45  43  93 NW5       30.24F
FORT MADISON * CLEAR     48  46  93 N3        30.24S
KEOKUK *       CLEAR     46  46 100 CALM      30.23S
OSKALOOSA *      N/A     45  43  93 N3        30.25S
CENTERVILLE *  CLEAR     45  45 100 N3        30.26S
OTTUMWA        CLEAR     43  42  97 NW3       30.24F
WASHINGTON *   CLEAR     45  45 100 NW3       30.24S
$$

ABBREVIATIONS USED IN REMARKS
   TC - TEMPERATURES IN CELSIUS
  WCI - WIND CHILL INDEX
   HX - HEAT INDEX
  VSB - VISIBILITY
$$



USA.gov is the U.S. government's official web portal to all federal, state and local government web resources and services.